Regional Weather Roundup
Issued by NWS

Home | Current Version | Previous Version | Text Only | Print | Product List | Glossary On
Versions: 1 2 3 4 5 6 7 8 9 10 11 12 13 14 15 16 17 18 19 20 21 22 23 24 25 26 27
000
ASUS44 KLIX 212013
RWRLA
LOUISIANA WEATHER ROUNDUP
NATIONAL WEATHER SERVICE NEW ORLEANS LA
200 PM CST SUN JAN 21 2018

NOTE: "FAIR" INDICATES FEW OR NO CLOUDS BELOW 12,000 FEET WITH NO
      SIGNIFICANT WEATHER AND/OR OBSTRUCTIONS TO VISIBILITY.
      SKY/WX - SKY CONDITION AND SIGNIFICANT WEATHER.
      TMP - AIR TEMPERATURE.    DP   - DEWPOINT TEMPERATURE.
      RH  - RELATIVE HUMIDITY.  PRES - PRESSURE.
      HX  - HEAT INDEX.         WCI  - WIND CHILL INDEX.

*  THESE STATIONS ARE NOT NWS OR FAA STATIONS AND ARE NOT UNDER
   NWS QUALITY CONTROL.

LAZ040-048-061>063-065-066-069-212100-
SOUTHEAST LOUISIANA

CITY           SKY/WX    TMP DP  RH WIND       PRES   REMARKS
N.O. INTL ARPT PTSUNNY   73  60  63 SE12      30.08F
N.O. LAKEFRONT PTSUNNY   73  57  57 SE17      30.09F
N.O. DOWNTOWN* MOCLDY    71  58  63 SE5       30.09F
RESERVE*       CLOUDY    73  60  62 SE10      30.07F
SLIDELL        FAIR      71  55  56 SE12      30.09F
BATON ROUGE    CLOUDY    72  61  68 SE13      30.05F
BOOTHVILLE     FAIR      74  59  59 SE13G18   30.10F
BELLE CHASSE   PTSUNNY   72  60  66 SE10      30.08F
BOGALUSA*      CLOUDY    75  54  47 S10       30.09F
GALLIANO*      FAIR      72  56  58 E8        30.08F
NEW ROADS*     FAIR      73  63  71 SE17      30.03F
GONZALES*      CLOUDY    72  62  69 SE9       30.05F
HAMMOND*       CLOUDY    70  55  60 S13       30.08F
HOUMA*         NOT AVBL
PORT FOURCHON* CLEAR     68  61  77 E13       30.07F

$$

LAZ041-044-053-054-212100-
SOUTHWEST LOUISIANA

CITY           SKY/WX    TMP DP  RH WIND       PRES   REMARKS
LAKE CHARLES   PTSUNNY   73  63  70 S15G24    29.99F
LAFAYETTE      CLOUDY    72  64  76 S12G22    30.02F
PATTERSON      CLOUDY    72  65  78 SE12G23   30.04F
SALT POINT       N/A     71  64  78 SE12G22   30.02F
NEW IBERIA     PTSUNNY   73  63  70 S16G25    30.03F
CHENAULT AIRPK PTSUNNY   73  63  68 S14       30.00F

$$

LAZ027-028-212100-
CENTRAL LOUISIANA

CITY           SKY/WX    TMP DP  RH WIND       PRES   REMARKS
FORT POLK      CLOUDY    69  62  76 S12       29.98F
ALEXANDRIA INT CLOUDY    68  62  81 S9        29.99F
ALEXANDRIA     CLOUDY    71  62  73 S9G21     30.00F

$$

LAZ001-002-212100-
NORTHWEST LOUISIANA

CITY           SKY/WX    TMP DP  RH WIND       PRES   REMARKS
SHREVEPORT     CLOUDY    70  62  76 S16G22    29.93F
BARKSDALE AFB  PTSUNNY   69  60  73 S17       29.93F
DTN SHREVEPORT CLOUDY    69  61  75 S14       29.93F

$$

LAZ014-016-212100-
NORTHEAST LOUISIANA

CITY           SKY/WX    TMP DP  RH WIND       PRES   REMARKS
MONROE         CLOUDY    71  60  68 S8        30.00F
TALLULAH       PTSUNNY   73  59  61 S13G23    30.02F

$$





USA.gov is the U.S. government's official web portal to all federal, state and local government web resources and services.